Lid_Strength_Index
7 4 3 3 3 3 5 5 4 3 2 2 2 3 3 2 2 2 1 0 1 1 2 3 3 3 3 3 4 3 3 3 3 4 4 3 1 1 1 1 2 1 1
7 5 4 3 3 4 5 4 3 2 2 1 2 2 2 2 2 2 1 1 1 1 2 3 3 3 4 3 4 4 5 5 4 5 5 5 4 2 1 2 2 1 0
6 5 4 4 4 5 4 3 3 2 2 1 3 3 3 3 4 5 4 3 2 1 2 3 4 3 4 4 4 4 5 6 6 5 4 6 7 5 3 3 2 1 1
6 5 5 4 5 4 4 3 2 2 2 2 3 4 5 5 6 6 6 5 4 4 2 1 2 2 3 3 3 3 6 6 6 4 2 3 4 6 6 4 3 2 1
6 5 5 5 5 4 5 5 5 5 5 5 5 5 6 6 6 7 7 6 5 4 4 4 4 4 4 4 4 4 5 4 4 5 6 4 3 3 4 6 4 3 2
6 6 7 6 6 6 6 7 7 7 7 6 6 7 7 7 8 8 7 6 5 5 4 4 4 4 4 4 4 4 4 4 4 3 3 3 4 4 4 5 4 4 2
6 7 7 7 7 7 7 6 6 7 7 6 6 6 7 7 7 7 6 5 5 5 4 3 3 3 3 3 3 4 4 4 5 5 5 4 4 3 3 3 4 5 3
7 7 7 6 6 6 5 6 6 7 7 7 7 6 6 7 7 6 5 5 4 4 4 4 3 4 4 5 5 6 6 6 7 7 7 7 6 5 5 5 5 6 5
8 6 7 6 6 6 5 5 5 6 6 6 6 7 6 6 5 5 4 4 4 3 4 4 5 5 5 5 6 7 7 8 8 8 8 8 7 7 6 6 6 6 9
7 6 6 6 6 5 5 5 5 5 5 5 5 5 5 4 4 4 4 4 4 5 5 5 6 6 6 6 7 7 7 8 8 7 8 8 8 8 7 7 8 8 8
7 7 6 5 6 6 6 6 6 6 6 5 4 4 4 4 4 4 4 4 5 5 6 5 6 6 6 6 7 7 7 7 7 7 7 7 8 8 8 8 9 9 9
7 6 6 6 7 7 7 7 6 6 6 6 5 5 5 5 5 5 5 5 6 6 6 6 6 6 6 6 7 7 7 7 7 7 7 7 6 7 7 8 9 9 8
6 7 7 8 7 7 8 8 7 8 7 6 6 6 6 6 6 6 6 6 7 7 6 6 6 6 6 7 7 7 7 7 7 7 7 7 8 8 8 8 8 8 7
8 8 8 8 8 8 8 9 8 8 7 7 7 7 7 7 7 7 7 7 7 7 7 6 6 6 7 6 7 6 6 6 6 6 6 7 8 8 8 7 7 7 8
8 8 9 9 9 9 9 10 9 8 7 7 8 8 8 7 7 7 7 7 7 7 7 7 7 7 7 6 6 6 6 7 7 7 7 7 6 5 5 6 7 8 8
9 9 10 10 10 11 11 10 9 9 9 9 9 9 8 8 8 8 7 7 7 7 6 6 6 7 6 6 6 6 6 7 8 8 7 6 5 5 5 5 5 5 7
8 10 10 11 11 11 10 11 10 10 10 10 9 9 9 9 9 8 8 8 8 8 8 7 7 7 7 7 8 7 9 9 8 8 7 7 6 5 6 5 5 6 6
10 11 11 11 11 11 11 11 11 11 10 11 10 10 10 10 9 9 9 9 9 8 8 7 7 7 7 8 9 9 10 10 9 8 8 7 7 7 7 7 7 7 6
11 11 11 11 11 11 11 12 12 11 11 12 11 11 10 10 10 9 8 9 9 8 6 6 7 9 9 9 10 10 10 10 10 9 8 8 8 8 9 8 8 8 7
10 10 10 11 11 11 12 13 12 12 12 12 12 11 9 9 9 8 9 7 7 7 7 8 9 9 11 11 11 11 11 11 11 10 9 8 8 9 9 9 9 9 8
10 11 11 12 12 13 13 13 13 12 11 11 11 11 10 10 9 9 8 9 9 9 9 10 11 12 12 12 11 12 12 11 11 11 10 7 8 9 10 10 9 8 8
10 11 13 13 13 13 13 13 13 12 11 11 12 12 11 10 9 9 10 10 12 12 12 13 13 13 13 11 12 12 11 11 11 10 8 7 9 10 10 9 10 11 11
12 11 12 12 12 12 13 13 13 12 11 12 13 11 10 10 10 10 11 12 13 14 13 13 14 15 13 13 12 12 11 11 10 9 9 9 10 10 9 10 10 9 8
12 11 12 13 13 13 12 13 12 12 12 13 13 12 11 11 10 10 11 12 13 15 15 15 15 14 13 13 13 12 12 11 10 9 8 9 9 10 10 10 10 9 9
12 12 12 13 13 13 13 13 12 12 13 13 13 12 12 12 11 11 11 12 13 14 15 15 14 15 15 14 13 13 12 12 11 10 10 11 11 11 12 12 12 11 11
13 13 13 13 13 13 13 13 13 13 13 14 14 14 13 13 13 12 12 12 13 13 14 14 13 13 13 13 13 13 13 13 12 11 12 12 13 13 13 13 13 13 12